Regional Weather Roundup
Issued by NWS Goodland, KS

Home | Current Version | Previous Version | Graphics & Text | Print | Product List | Glossary On
Versions: 1 2 3 4 5 6 7 8 9 10 11 12 13 14 15 16 17 18 19 20 21 22 23 24 25 26 27 28 29 30 31 32 33 34 35 36 37 38 39 40 41 42 43 44 45 46 47 48 49 50
000
ASUS43 KGLD 252259
RWRGLD

GOODLAND FORECAST AREA HOURLY WEATHER ROUNDUP
NATIONAL WEATHER SERVICE GOODLAND KS
400 PM MST TUE NOV 25 2014

...OFFICIAL OBSERVATIONS...

CITY           SKY/WX    TMP DP  RH WIND       PRES   REMARKS
GOODLAND KS    CLOUDY    47  10  22 SW10      29.87S
HILL CITY KS   CLOUDY    50  14  23 SW12      29.88F
IMPERIAL NEB   CLOUDY    49  19  30 NW8       29.83R
MCCOOK NEB     CLOUDY    47  20  34 CALM      29.84S
AKRON CO       CLOUDY    43  14  31 W6        29.87R
BURLINGTON CO  CLOUDY    50  11  20 NW13      29.87R
LIMON CO       PTCLDY    44  15  31 NW16      29.89R
$$

...UNOFFICIAL OBSERVATIONS...

CITY           SKY/WX    TMP DP  RH WIND       PRES   REMARKS
COLBY KS       CLEAR     45  25  45 W5        29.86S
GOVE KS          N/A     51  32  48 MISG        N/A
NORTON KS      CLOUDY    48   9  20 SW7       29.86S
SHARON SPRINGS   N/A     47  15  27 SW6         N/A
TRIBUNE KS     MOCLDY    48  23  37 SW7       29.90F
TRENTON NEB      N/A     48  32  54 CALM        N/A
YUMA CO          N/A     48  16  27 W17         N/A
$$



USA.gov is the U.S. government's official web portal to all federal, state and local government web resources and services.